Погода в Мурманске

Россия / Мурманская область     68°58′14″N   33°04′29″E
темп.,
°C
ветер,
м/с
пор.,
м/с
влажн.,
%
обл.,
%
осадки,
мм/ч
давл.,
гПа
погр.,
м
19 апреля, пн
пн1900:00+2ююз499297 0.0 1030243
03:000ююз349384 0.0 102960
06:000ююз389477 0.0 1028180
09:00+2зюз6129199 0.0 1028543
12:00+6юз51175100 0.0 1027621
15:00+7зюз6107526 0.0 1026791
18:00+7зюз510795 0.0 1025657
21:00+3зюз410917 0.0 1025252
20 апреля, вт
вт2000:00+5юз5108294 0.0 1024469
03:00+2ююз36913 0.0 1024110
06:00+1ююз369611 0.0 1023135
09:00+5юз497621 0.0 1022427
12:00+8юз61060100 0.0 1021583
15:00+9юз61255100 0.0 1020718
18:00+8ююз61273100 0.0 1018681
21:00+6ююз613857 0.0 1017453
21 апреля, ср
ср2100:00+5ююз513835 0.0 1016436
03:00+4ююз613795 0.0 1014434
06:00+3ююз513765 0.0 1013460
09:00+6ююз712665 0.0 1012790
12:00+8ююз710535 0.0 10111088
15:00+8ююз685197 0.0 10101219
18:00+7ююз5657100 0.0 10101045
21:00+5ю367097 0.0 1009193
22 апреля, чт
чт2200:00+3ю2277100 0.0 100839
03:00+2ю1177100 0.0 100610
06:00+2всв1173100 0.0 100410
09:00+4св1261100 0.0 1003294
12:00+5всв2255100 0.0 1001607
15:00+6с3354100 0.0 1001797
18:00+5с3457100 0.0 1001607
21:00+3с2472100 0.0 1002134
23 апреля, пт
пт2300:00+1сз2389100 0.0 100487
03:00+1ссз2792100 0.1 1005432
06:00+1ссз2798100 0.2 1007413
09:00+1с379499 0.7 1010528
12:00+3ссв5674100 0.3 1012919
15:00+2св667398 0.4 1015906
18:00+2св6875100 0.1 1017879
21:00+1всв6984100 0.2 1018749